User: anonymous   Login
Location: Allonne
(49.4086°N, 2.1143°E)
Time: 08:27:48
(UTC+00:00)
Language:

Cosmos 1606 - Orbit

View from above orbital plane
View from above orbital plane
View from above satellite
View from above satellite

Ground track
Ground track

The orbit data is extracted from the following two-line orbital elements,

1 15369U 84111A   24104.71856726  .00013338  00000-0  44213-3 0  9997
2 15369  82.5239 179.4098 0012352 211.8711 148.1784 15.31073522158711
Epoch (UTC): 13 April 2024 17:14:44
Eccentricity: 0.0012352
inclination: 82.5239°
perigee height: 464 km
apogee height: 481 km
right ascension of ascending node: 179.4098°
argument of perigee: 211.8711°
revolutions per day: 15.31073522
mean anomaly at epoch: 148.1784°
orbit number at epoch: 15871

The dashed part of the orbit path shows where the satellite is in the earth's shadow,  

DLR